FENGYUN 1C DEB, 29972

Orbit data source: Space-Track

FENGYUN 1C DEB, 29972 is space debris in SSO originally from a launch on Mon, 10 May 1999 UTC launched from the Taiyaun Space Center, China (TSC). Fengyun 1C debris stems from the Chinese weather satellite Fengyun-1C, which was intentionally destroyed by a Chinese anti-satellite missile in 2007. This event dramatically increased the amount of space debris, with thousands of trackable fragments posing hazards to satellites and human spaceflight. The Fengyun 1C debris cloud has become a focal point in discussions about space sustainability and the need for international regulations to prevent the creation of new debris.

Loading next visibility...
Identifier
29972, 1999-025KW
Orbit
SSO
Country
Flag of CNCN / PRC
Related business
Manufacturer
Unknown
Mission
Spacecraft
Bus & Motor
Unknown
Mass
Unknown
Launch date (UTC)
1999-05-10 (27 years ago)
Launch vehicle
Unknown
Launch site
Taiyaun Space Center, China (TSC)
Object type
Payload
Rocket body
Debris
Shape & HBR
Unknown shape, 0.1 m
Radar Cross Section
Medium (>0.1 m² and <1 m²)

Expand to show TLE details & history
Last TLE update: 2 days ago

TLE from 2 days ago
0 FENGYUN 1C DEB
1 29972U 99025KW  26235.58504584  .00003223  00000-0  54269-3 0  9990
2 29972  98.9057 275.1017 0059863 306.3263 206.8026 14.69199422 32080
Epoch: 2026-08-23T14:02Z
TLE epoch observation values (Epoch: 2026-08-23T14:02:27.960Z)
Latitude
26.86309°
Longitude
-82.8659°
Altitude
704.628 km
Speed
7.486 km/s
True Right ascension
06h 38m 31s
True Declination
26° 43' 25"
Sunlit
Object was in daylight at epoch
Visualization orbit readout
Latitude
Unknown
Longitude
Unknown
Altitude
Unknown
Speed
Unknown
Apparent Right ascension
Unknown
Apparent Declination
Unknown
Sunlit
N/A
Visualization observer readout
Local Sidereal Time
18:19:40
Azimuth
Unknown
Elevation
Unknown
Doppler factor
Unknown
Orbital elements
Apogee altitude
702.864 km
Perigee altitude
618.591 km
Semi-major axis
7,038.865 km
Eccentricity
0.00599
Inclination
98.9057°
RAAN
275.1017°
Arg. of periapsis
306.3263°
True anomaly
206.49533°
Mean anomaly
206.8026°
Eccentric anomaly
206.64876°
Mean motion
3.67527 °/min
Orbital period
97.95 mins
BSTAR
0.00054269
Loading maneuver chart data...
Computing Atmospheric mass density...

Documentation

Showing up to 5 results
|